Wind_Speed
10 11 10 11 12 12 12 13 14 14 14 15 15 17 18 18 18 19 19 19 19 18 18 19 19 19 19 19 19 18 18 18 18 19 19 18 18 18 17 17 17 17 17 17 18 18 19 19 19 20 20 20 21 22 23 24 24 25 25 25 25 24 24 24 23 23 22 21 20 20 19 18 17 16 15 15 15 16 16 17 17 18 19 20 20
11 10 10 11 12 12 12 13 13 14 14 14 15 16 17 18 19 19 19 19 19 18 18 18 19 19 19 19 18 18 18 18 18 18 18 18 18 17 17 17 17 17 17 17 17 18 18 19 19 20 20 21 21 22 23 23 23 23 23 23 23 23 23 23 23 23 22 21 20 19 18 17 17 16 16 16 16 17 17 18 18 19 19 19 20
9 9 10 11 12 12 12 12 13 13 14 14 15 15 16 17 18 18 18 18 18 18 18 18 18 19 18 18 17 17 17 17 17 17 17 17 17 17 16 16 16 17 17 17 17 18 18 19 19 20 20 21 21 21 21 21 22 22 22 22 22 23 23 23 23 23 22 21 20 19 19 18 18 17 17 17 17 18 18 19 19 19 19 19 19
8 8 9 9 11 11 12 12 12 13 14 14 14 14 15 16 16 17 18 17 17 17 18 17 18 18 18 17 16 15 16 16 16 16 17 16 16 16 16 16 16 16 16 17 17 18 18 18 18 19 19 19 19 19 19 19 20 20 21 21 22 23 23 23 23 23 22 21 20 19 19 18 18 18 18 18 19 19 19 19 19 19 19 19 19
6 7 8 8 10 11 11 11 11 12 13 14 13 14 15 16 16 16 17 16 16 16 17 17 17 17 17 16 15 15 15 15 15 15 16 16 16 15 15 15 15 15 16 16 17 17 16 16 17 17 18 18 18 18 18 18 19 20 21 22 22 23 23 23 23 22 21 20 19 19 19 18 19 19 19 20 20 21 21 21 20 20 19 20 20
6 6 7 7 8 9 10 10 11 11 12 11 12 13 14 15 15 16 16 15 15 15 16 16 17 16 16 16 14 14 14 14 14 14 15 15 15 15 15 15 15 15 15 15 15 15 15 15 15 16 16 17 17 17 17 18 19 20 21 22 23 23 23 23 22 21 21 21 20 20 20 20 21 21 21 22 22 23 22 22 21 21 21 21 21
7 6 6 6 7 8 9 10 10 10 9 10 10 11 13 14 15 15 15 15 14 14 14 14 15 15 15 15 14 13 13 13 13 13 14 14 14 14 14 14 14 14 14 14 14 14 14 14 15 15 16 16 17 17 17 18 19 20 22 23 23 23 22 22 22 22 22 22 22 22 23 23 23 23 23 24 24 25 24 24 23 23 23 22 22
8 8 7 6 6 7 8 9 10 9 8 9 10 10 11 12 12 13 13 14 13 13 13 13 13 13 13 13 12 12 12 12 12 12 13 13 13 14 14 14 14 13 14 14 13 13 14 14 14 15 15 16 17 17 17 18 20 21 22 22 22 22 21 21 22 23 23 24 24 24 24 24 24 24 24 24 25 25 25 25 24 24 23 22 22
9 9 8 8 8 7 8 8 9 9 8 8 9 8 9 10 10 11 12 12 12 12 12 12 12 11 11 11 11 11 11 11 11 11 12 12 12 13 14 14 13 13 14 14 13 13 13 14 14 14 15 16 16 17 17 19 20 22 22 21 21 20 21 22 23 24 24 24 24 24 23 23 23 23 22 22 23 23 23 24 24 23 23 23 23
10 9 8 9 9 8 8 8 9 9 9 9 9 9 9 10 10 10 10 10 10 10 10 10 10 10 9 9 10 10 10 10 10 10 11 11 12 12 13 12 12 13 13 14 13 13 13 13 14 14 15 15 16 16 17 19 20 21 21 20 19 20 21 23 24 24 24 24 24 23 23 22 22 22 22 22 22 23 23 23 23 23 24 24 24
10 9 9 10 10 8 8 8 9 9 9 9 9 10 10 11 11 10 10 9 9 9 9 9 9 9 9 8 9 9 9 9 10 10 10 10 10 11 11 11 11 11 12 13 13 13 13 13 14 14 15 16 16 17 18 19 20 20 19 19 20 21 22 23 23 23 24 23 23 23 23 23 23 23 23 23 23 23 23 23 23 24 24 24 23
10 10 9 10 10 9 8 8 9 9 9 9 10 11 12 11 11 10 10 9 9 9 9 9 9 9 9 8 9 9 9 9 10 10 10 10 10 9 9 9 9 9 10 12 12 12 13 14 14 15 16 16 17 18 19 19 20 20 20 20 20 20 21 22 22 23 23 23 24 24 24 24 25 25 25 24 24 24 24 23 23 23 23 23 23
11 10 10 10 9 9 9 8 9 9 9 10 10 11 12 11 11 11 11 10 10 10 10 10 9 9 9 9 9 9 9 9 10 10 10 9 9 9 9 9 9 8 10 11 12 13 13 14 14 15 16 17 18 18 19 20 20 20 20 20 20 20 21 21 22 22 23 24 24 25 25 24 24 24 24 24 23 23 23 23 23 23 23 24 24
10 10 10 10 10 9 9 9 9 9 9 9 10 10 11 11 11 11 11 12 12 12 11 11 10 9 9 9 10 10 10 10 10 9 9 9 9 9 9 9 9 9 9 11 12 13 14 14 14 15 16 17 18 19 20 21 21 20 20 20 20 21 21 22 22 23 23 24 25 25 24 24 24 23 23 23 23 23 24 24 24 24 24 25 25
10 10 10 10 10 10 10 9 9 9 9 9 9 10 10 11 11 11 12 12 12 12 12 12 11 10 10 10 10 10 10 10 9 9 10 10 10 9 10 9 9 10 10 12 13 14 14 14 15 16 17 17 18 20 22 22 21 20 20 20 21 21 22 22 23 23 24 24 25 25 25 24 24 24 23 23 24 24 25 25 25 25 25 25 25
10 10 10 10 10 10 10 10 9 9 9 9 9 10 10 10 11 11 11 12 12 12 12 12 11 10 10 10 9 10 10 10 9 10 10 10 10 10 10 10 10 11 12 13 14 15 14 15 16 16 17 18 20 21 21 21 21 21 21 21 21 22 22 22 23 23 24 25 25 25 25 25 25 24 24 24 25 25 26 26 26 26 26 26 26
11 11 10 10 10 10 10 9 9 9 9 9 10 10 10 10 11 11 11 12 12 12 12 11 11 10 9 9 9 9 10 10 10 10 11 10 11 11 11 11 12 13 13 13 15 15 15 15 17 18 19 20 21 21 20 20 21 21 21 21 22 22 22 23 23 24 25 25 25 25 25 25 25 25 25 25 26 26 27 27 27 28 28 28 28
11 11 11 10 10 10 9 9 9 9 9 9 10 11 10 10 10 10 10 10 10 10 10 9 9 8 8 9 9 9 10 10 10 10 11 11 12 13 13 13 14 15 14 14 15 16 16 18 19 19 20 21 20 20 20 20 21 21 22 22 22 22 23 24 24 24 24 24 24 25 25 25 25 25 26 26 26 27 27 27 28 28 29 29 29
11 12 11 10 9 8 9 8 8 8 8 9 10 11 10 10 9 8 8 8 8 9 9 8 8 8 9 9 9 9 9 10 10 11 12 13 14 14 14 13 15 15 15 16 17 18 19 20 21 20 20 20 20 20 20 20 21 21 22 22 22 23 23 24 24 23 23 23 24 24 24 25 25 26 26 26 26 27 27 27 27 28 29 29 29
12 12 11 10 8 8 8 8 8 7 7 8 9 9 9 8 8 7 7 7 8 9 9 9 9 9 9 9 9 9 9 10 11 12 12 13 14 14 14 14 15 16 17 18 19 20 20 21 20 20 19 20 20 20 20 20 21 22 22 23 23 23 23 22 21 21 21 22 23 24 24 24 25 25 25 26 26 27 28 28 27 28 28 28 29
13 12 11 10 9 8 8 8 8 8 7 7 8 8 8 8 8 8 7 8 9 10 10 10 9 9 9 8 8 8 9 11 12 13 13 13 14 15 15 15 16 17 18 20 20 20 20 20 20 19 19 19 19 19 20 20 21 22 22 22 21 20 20 19 19 19 20 22 23 24 25 25 25 25 25 25 26 27 28 28 28 28 28 28 29
13 12 10 10 9 8 8 8 8 8 8 8 8 9 8 9 9 9 9 9 10 10 10 10 9 9 8 8 8 8 10 11 12 13 13 13 14 16 16 15 16 17 18 19 19 19 19 19 18 18 18 19 19 19 20 21 21 21 20 19 18 17 17 17 18 19 20 21 22 23 24 25 25 26 26 26 26 27 28 28 28 28 29 29 29
13 12 11 10 9 8 8 8 8 8 8 8 8 9 9 9 10 10 10 10 10 10 10 9 9 9 8 8 8 9 10 11 12 13 13 13 14 15 16 16 16 16 17 18 18 18 18 18 17 17 18 18 18 19 20 20 20 19 18 17 16 16 16 17 18 19 20 21 22 23 24 25 26 26 26 26 26 27 27 28 28 28 28 29 29
13 13 12 11 10 9 8 7 7 7 7 7 7 7 8 9 9 9 9 10 10 9 9 9 9 8 8 8 9 9 10 11 11 12 13 13 14 15 15 16 15 15 16 16 16 17 17 16 16 16 17 17 18 18 19 18 17 17 16 15 15 15 16 17 18 19 21 22 22 23 24 25 26 27 27 27 27 27 27 27 28 28 28 29 29
14 13 12 11 10 9 7 6 6 5 6 6 6 6 7 8 8 9 9 9 9 9 8 9 8 8 8 9 9 10 10 11 10 11 12 12 13 14 13 14 14 14 15 15 15 15 15 16 15 15 16 16 17 17 16 16 15 14 14 14 14 15 16 17 19 20 22 23 24 25 26 27 27 27 27 27 27 28 28 28 28 29 29 30 31
14 13 12 11 10 8 7 5 4 4 3 4 5 5 5 6 7 8 8 8 8 8 8 8 8 8 9 9 9 9 10 10 10 10 11 11 12 12 12 12 12 13 14 14 14 14 14 15 15 14 15 15 15 14 14 13 13 12 12 13 14 15 16 18 19 21 23 24 25 26 27 27 27 28 28 28 29 29 29 30 30 30 31 31 32
14 13 12 11 9 8 6 5 4 3 2 2 3 4 4 5 6 7 8 8 7 8 8 8 8 8 9 9 9 9 9 9 9 10 10 10 11 11 11 11 11 11 12 12 13 13 13 13 14 14 14 13 12 12 12 11 11 11 13 14 15 16 18 19 21 23 24 24 25 26 26 26 26 27 28 29 29 30 31 31 32 32 32 33 33
14 13 12 11 9 8 7 6 5 4 4 3 2 3 3 4 6 7 8 9 9 9 9 9 9 9 8 8 8 8 8 8 8 9 9 9 10 10 10 10 10 10 10 11 11 11 11 12 12 13 12 11 10 10 9 9 10 11 13 14 16 18 19 21 22 23 23 24 24 25 25 26 26 27 28 29 30 31 31 32 33 33 33 33 33
14 13 12 11 9 8 7 7 7 6 5 4 3 3 4 5 7 9 10 10 10 10 9 9 9 9 9 8 7 7 7 7 7 8 8 9 9 9 9 9 8 9 9 9 10 10 10 10 11 12 11 9 8 8 8 8 9 11 13 15 17 17 18 19 19 20 21 22 23 24 25 26 27 28 29 30 30 31 32 33 34 35 35 35 35
15 13 12 11 9 8 7 7 7 7 7 6 5 5 6 8 9 11 11 11 11 10 9 9 9 9 9 8 7 6 6 6 6 6 7 8 8 8 8 8 7 7 7 7 8 8 8 10 11 10 9 8 7 6 7 7 9 12 14 16 15 14 15 16 17 19 21 22 23 25 27 28 28 29 30 31 32 33 35 36 36 37 37 38 38
15 14 13 12 10 8 7 7 7 7 7 8 8 9 10 11 11 11 11 11 10 9 8 7 7 7 7 7 6 5 5 5 5 6 6 6 6 7 7 7 6 6 6 6 6 7 8 9 10 9 8 6 6 5 6 7 10 12 12 11 10 11 12 14 16 19 21 23 25 27 29 30 31 32 33 34 35 36 37 37 37 38 38 38 39
16 15 14 13 11 9 7 7 7 8 9 10 11 11 12 11 11 10 10 9 9 8 7 6 6 6 6 5 5 4 4 4 5 5 6 6 6 6 6 6 6 6 5 5 5 5 7 9 9 8 6 5 4 4 5 7 8 8 7 6 7 9 11 13 15 19 22 24 27 29 30 31 32 33 34 35 35 36 36 36 36 37 37 37 38
17 16 15 14 12 9 8 7 7 9 11 11 12 11 11 10 9 8 8 7 7 6 6 5 5 5 5 4 4 3 3 3 4 5 6 7 8 8 7 7 7 6 5 5 4 5 6 8 8 7 5 4 3 3 4 5 4 4 4 5 7 9 11 14 17 21 23 24 26 28 29 30 31 31 32 33 33 34 34 34 35 35 35 36 37
18 17 16 15 13 10 9 9 8 9 11 11 11 11 10 9 8 7 7 6 5 5 4 4 3 3 4 4 3 3 3 3 3 4 6 8 10 10 9 9 8 7 6 5 4 5 6 7 7 6 5 3 2 3 2 2 2 3 4 6 8 10 13 16 20 22 22 22 23 25 26 27 28 28 29 30 30 31 31 32 32 33 33 34 36
19 18 17 16 14 11 10 10 9 10 10 11 11 10 9 8 7 7 6 5 4 4 3 2 2 2 2 3 3 3 3 4 4 4 6 8 10 11 11 10 10 9 8 7 6 5 6 7 7 6 5 3 1 1 0 1 2 3 4 6 9 12 15 18 20 21 21 21 22 23 24 25 26 27 28 28 29 30 30 31 31 32 32 34 36
20 19 18 17 15 13 12 11 11 11 11 11 11 10 9 8 7 6 5 4 3 2 2 2 2 2 2 3 3 4 4 5 5 5 6 7 10 12 13 12 11 11 10 9 7 6 6 8 8 7 6 4 3 2 2 1 2 3 5 8 10 13 15 16 17 18 19 20 21 23 24 24 25 26 27 28 29 30 30 30 31 32 33 34 36
21 20 19 18 17 15 14 14 13 13 13 13 12 11 10 8 7 5 5 4 3 2 2 3 3 3 3 3 4 5 6 6 6 7 7 7 9 11 14 14 13 12 12 11 9 8 7 8 8 8 7 6 5 5 4 3 3 4 7 9 10 11 12 13 15 17 18 19 21 22 23 23 24 25 26 28 29 30 30 30 31 32 33 35 35
22 22 20 19 19 18 17 16 15 15 15 14 14 12 10 9 8 6 5 4 3 3 4 4 5 5 5 5 5 6 7 8 8 8 8 8 8 10 13 15 15 14 13 12 11 10 9 9 10 10 9 7 7 7 6 5 5 5 6 8 9 10 11 12 14 17 18 19 21 22 23 23 24 25 26 27 28 29 30 30 31 33 34 35 36
23 22 21 21 20 20 19 18 17 17 16 16 16 14 12 10 9 8 6 5 4 4 5 5 6 7 7 7 7 8 9 9 9 9 9 9 9 10 12 15 16 16 15 14 13 12 11 10 11 11 10 9 9 9 8 7 7 6 5 6 8 10 12 12 14 16 18 19 21 23 24 24 24 25 26 26 28 29 30 31 32 33 34 35 36
23 22 22 22 22 21 20 19 18 18 17 17 17 16 14 13 11 10 8 7 6 6 6 7 8 8 9 9 9 9 10 11 11 11 10 10 11 11 11 14 17 17 16 15 15 14 13 12 12 12 12 11 10 11 11 10 10 9 7 8 10 12 13 14 16 17 18 19 21 23 24 25 26 26 26 27 28 29 30 32 33 33 34 33 33
23 23 23 24 23 23 22 20 19 18 18 18 18 18 17 16 14 12 10 8 7 7 7 8 9 10 11 11 10 10 11 12 12 12 12 11 12 12 11 13 16 17 17 17 17 16 14 14 13 14 14 14 13 13 13 12 11 10 9 10 11 13 14 16 18 19 19 19 21 24 24 24 26 26 26 27 28 29 30 32 33 33 32 31 30
24 23 23 24 24 23 23 21 20 18 18 18 19 19 20 19 17 15 12 10 8 8 8 8 9 11 12 12 12 11 12 13 13 14 13 12 12 13 12 13 15 17 18 18 18 17 16 15 15 16 16 16 15 14 14 13 13 12 12 12 13 14 15 17 19 21 21 20 21 24 25 24 26 26 26 27 28 28 29 30 31 31 31 30 30
25 24 24 24 24 24 24 22 21 19 19 19 20 20 21 21 20 17 14 12 10 9 9 9 10 11 12 12 12 12 12 13 14 15 14 14 14 14 14 14 15 16 18 19 19 18 17 17 17 17 17 17 17 16 15 15 15 15 15 15 15 16 17 18 19 21 22 21 21 24 25 25 25 26 27 28 28 28 28 29 30 31 31 31 32
26 25 24 24 24 25 24 23 22 20 20 21 21 20 21 22 22 20 17 14 12 11 11 11 11 12 12 12 12 12 13 13 14 15 15 15 15 15 15 15 15 16 18 19 19 19 18 18 18 18 18 18 18 18 18 18 18 18 17 17 17 17 19 20 21 21 22 22 22 24 25 24 25 26 27 28 28 28 29 30 31 31 32 32 33
27 26 24 24 24 25 24 23 22 22 21 22 22 21 21 22 24 23 20 17 15 13 12 12 12 13 13 13 12 13 13 14 14 15 15 16 16 16 16 16 16 18 19 19 20 20 19 19 20 20 19 19 20 20 21 21 21 20 19 19 19 19 20 22 22 22 22 23 22 23 25 24 24 25 27 27 28 29 30 30 31 31 32 32 33
27 27 26 25 25 25 25 24 23 23 22 22 22 23 22 23 24 24 22 19 17 16 14 14 14 15 15 14 14 13 13 14 14 15 15 16 17 17 17 17 17 19 19 20 21 21 20 20 21 21 21 21 21 22 23 24 23 22 21 21 21 21 22 23 23 23 23 24 24 24 24 24 23 24 26 27 28 29 30 31 32 32 33 33 35
26 28 28 27 26 26 26 25 24 23 23 23 23 23 23 23 23 24 23 21 19 18 17 16 16 17 17 16 15 15 14 14 15 15 16 17 17 18 18 18 19 19 20 21 21 21 21 22 22 22 23 23 23 24 25 26 25 24 23 23 23 23 24 24 24 24 25 25 25 25 24 24 23 24 26 29 29 30 31 32 33 33 34 35 36
25 27 29 28 27 27 26 26 25 24 23 23 23 23 24 24 23 24 24 23 22 21 20 18 18 18 18 17 17 17 15 15 16 16 16 17 17 18 19 19 20 20 21 22 22 22 23 23 22 23 24 25 24 25 26 27 27 26 25 25 25 25 25 24 24 25 26 26 26 26 25 25 24 24 27 29 30 30 31 32 33 33 34 35 36
24 25 27 29 29 28 27 26 25 25 24 24 24 24 24 25 24 23 24 25 24 23 22 20 20 20 19 19 18 18 17 16 16 16 16 16 17 19 19 20 20 21 21 22 23 23 24 23 23 24 25 25 25 25 27 28 28 28 27 26 27 27 26 26 25 26 27 27 27 27 26 26 25 25 26 28 30 31 31 31 32 33 34 35 35
24 25 26 28 30 30 29 27 26 25 25 25 25 25 25 25 24 23 24 25 25 24 24 23 22 21 21 20 19 19 18 18 17 16 16 16 17 19 20 20 21 21 22 22 23 24 24 24 24 25 26 26 26 25 27 29 29 29 28 27 28 28 27 26 27 27 28 28 28 27 27 26 26 25 25 26 29 32 33 33 33 34 34 35 35
24 25 26 27 28 29 29 29 28 27 26 26 25 25 25 25 24 23 24 25 25 25 26 25 24 23 23 22 20 20 20 19 18 17 16 16 17 18 19 20 20 21 22 23 23 24 25 25 25 26 27 27 26 26 27 29 30 29 29 29 29 28 27 27 27 28 29 28 28 27 27 26 26 26 26 26 27 30 32 34 35 36 36 36 35
Wind_Direction
92 92 95 94 93 93 92 91 89 89 91 94 97 100 102 105 106 105 103 102 102 102 103 104 104 103 104 104 103 103 103 102 102 101 100 98 96 94 93 92 91 90 89 87 86 85 83 82 80 77 75 72 69 67 65 64 64 64 63 61 59 56 54 52 50 48 47 46 45 43 41 39 36 33 30 26 23 20 17 14 11 9 8 7 7
94 103 106 101 99 100 98 96 95 95 97 99 99 99 100 105 108 107 106 105 104 104 104 105 105 104 104 104 105 105 105 104 102 101 99 97 95 93 92 91 90 90 89 86 84 82 81 79 77 75 72 70 68 68 67 67 67 65 63 60 57 54 51 49 47 45 44 42 41 39 37 34 31 29 27 24 22 19 17 15 13 12 12 11 11
92 102 103 99 100 102 102 100 100 102 103 102 99 101 105 107 108 107 105 105 105 106 105 105 105 104 103 103 104 105 104 102 101 99 97 95 93 92 90 90 89 88 87 84 81 79 77 76 74 73 71 71 71 71 71 70 68 64 61 57 54 51 49 46 45 43 42 40 38 37 35 33 32 30 28 26 24 22 20 18 17 16 15 14 12
92 97 98 102 105 105 105 104 104 106 105 101 100 103 106 106 106 107 107 106 106 105 102 101 100 100 100 100 101 102 100 98 97 96 95 93 91 90 88 86 85 83 82 80 78 76 74 74 73 73 73 73 73 73 72 70 66 63 58 54 51 49 46 45 43 42 41 40 39 37 37 35 34 33 31 29 26 24 22 20 18 17 15 13 11
96 100 102 106 107 105 107 108 108 107 104 101 101 102 100 102 104 105 105 105 103 99 95 93 92 91 92 94 95 96 95 95 95 94 94 93 91 89 86 84 82 79 77 75 74 74 74 73 72 73 73 74 73 72 70 67 63 59 55 52 50 47 45 45 44 44 43 43 42 41 39 38 36 34 32 30 27 25 23 20 17 15 14 14 13
102 97 94 96 98 102 108 109 106 101 99 100 101 99 97 97 97 97 98 99 98 94 92 91 88 87 87 87 87 89 91 91 92 92 92 91 90 88 84 82 78 76 74 73 72 72 72 71 70 70 71 71 70 67 64 62 58 54 52 51 49 47 46 47 47 47 47 47 46 44 42 40 38 36 34 32 30 28 26 24 22 22 22 22 22
113 105 96 92 93 101 106 103 98 97 101 106 103 98 95 94 93 92 93 94 94 93 92 91 88 86 85 85 84 85 86 88 89 90 90 89 87 85 81 77 74 73 72 71 69 68 68 68 68 68 67 66 63 61 58 55 52 51 50 49 48 48 47 49 50 51 50 48 46 43 41 39 38 37 36 35 35 34 34 34 33 33 33 32 30
121 117 111 104 99 102 101 99 104 108 112 108 103 99 96 97 97 96 95 94 93 93 93 91 88 83 81 83 83 83 84 85 87 87 87 85 83 80 78 75 72 71 69 68 64 62 63 64 66 66 65 63 59 56 52 50 49 50 49 48 48 48 49 52 53 51 49 46 43 40 38 37 37 37 38 37 38 38 38 38 37 36 35 34 32
123 121 120 116 111 109 106 107 110 110 108 104 104 103 103 104 102 100 99 98 96 94 93 92 89 84 80 79 81 81 82 84 87 87 86 85 83 79 77 75 72 69 66 65 62 59 60 61 64 65 65 62 58 53 49 48 49 51 50 49 49 51 53 54 52 49 46 43 40 38 37 37 38 38 38 38 38 37 37 36 34 34 33 32 31
124 123 123 118 112 109 107 103 101 98 97 99 104 105 106 105 102 101 100 99 98 96 94 92 90 86 82 81 82 83 85 88 89 89 87 86 85 83 79 76 73 69 65 64 61 58 59 60 63 65 65 61 57 53 51 51 51 51 51 53 55 56 56 55 51 48 44 42 41 40 40 40 41 40 40 38 37 36 34 33 31 30 30 29 28
127 125 121 115 111 108 103 100 96 91 89 93 100 101 100 99 99 102 104 102 100 98 96 92 89 88 87 88 89 90 91 94 95 94 92 89 87 84 83 80 75 70 66 62 59 58 59 62 65 65 63 59 57 57 57 56 54 54 56 59 60 60 58 55 52 48 46 45 44 45 45 45 44 43 42 40 38 37 35 33 31 30 29 27 25
131 128 121 117 115 111 104 101 97 92 92 94 96 96 95 96 100 102 102 103 102 100 98 94 92 92 93 93 94 94 94 95 96 96 97 96 93 88 84 79 75 71 67 61 58 60 63 66 67 65 62 59 59 60 59 59 60 62 63 63 63 61 59 56 53 51 50 49 49 48 47 47 46 44 43 42 39 38 35 33 30 28 26 24 22
135 127 122 121 117 112 106 102 100 98 99 98 95 94 96 99 101 102 103 104 105 104 101 98 96 95 97 97 96 96 95 94 93 93 94 94 91 87 83 79 77 72 67 62 60 65 68 69 67 65 63 62 61 60 60 63 65 67 66 64 63 60 58 55 53 51 51 51 50 50 49 47 46 44 42 41 39 36 33 30 27 25 24 22 20
136 128 125 125 120 114 112 111 105 101 100 99 98 98 100 101 102 104 106 105 104 105 104 101 100 99 98 97 96 95 93 92 92 92 90 86 82 81 83 83 82 74 65 64 68 72 72 71 69 67 66 64 63 64 66 67 68 67 65 63 61 59 57 54 52 50 50 49 48 47 46 45 43 41 40 38 35 32 29 27 25 23 22 21 19
138 133 129 126 122 119 119 117 110 105 105 103 102 102 102 102 102 104 104 103 103 103 103 102 102 101 99 96 93 93 91 89 88 88 86 84 83 82 83 83 80 76 71 72 75 75 74 73 70 68 66 65 67 71 71 70 68 66 65 63 61 59 56 53 51 50 49 48 46 43 41 39 37 35 34 32 29 26 24 22 21 20 19 18 16
142 139 133 130 128 124 122 118 113 112 114 111 107 108 107 105 104 103 102 102 102 102 101 101 101 100 99 96 93 93 92 89 86 85 85 85 86 85 84 83 82 81 81 82 82 79 76 75 72 70 71 72 73 73 72 70 68 66 65 63 62 59 56 54 51 50 48 46 43 40 38 35 33 31 28 25 23 20 18 16 15 14 14 13 12
146 140 136 136 132 126 124 122 121 121 120 118 115 112 109 106 106 105 103 101 100 100 97 97 98 96 95 93 92 93 92 89 86 85 86 87 88 88 86 87 87 86 85 85 85 83 81 78 77 77 79 79 76 74 72 70 69 68 66 64 62 59 57 54 51 49 46 43 40 37 34 32 29 27 24 21 18 15 13 11 10 10 9 9 8
147 142 139 140 136 133 133 131 128 124 120 119 118 114 111 110 109 106 103 101 100 98 93 93 94 93 91 89 88 88 88 88 87 86 87 89 89 90 90 91 91 90 89 87 86 85 83 81 82 82 83 81 77 74 71 70 70 69 67 65 62 60 57 54 50 47 44 40 37 34 31 28 26 23 20 17 14 11 8 6 5 5 4 4 3
148 145 143 144 143 142 140 136 131 125 121 121 119 115 115 115 111 108 105 101 97 92 88 86 88 90 89 88 87 86 86 86 85 85 89 93 93 94 95 94 94 93 91 88 85 85 84 84 86 85 83 80 76 74 72 72 71 70 69 66 63 60 56 52 49 45 41 38 34 31 27 24 21 18 15 12 10 7 5 3 2 1 1 1 360
153 151 149 151 152 150 145 141 138 132 127 124 117 115 117 115 111 110 107 98 91 89 86 84 85 87 86 85 86 86 86 86 87 89 92 95 98 98 97 95 93 91 90 88 86 86 87 88 87 85 81 78 76 75 75 75 73 72 70 66 62 59 55 51 47 42 38 35 31 27 23 19 17 15 12 10 9 8 6 6 6 5 4 4 3
158 157 156 157 159 158 153 146 141 136 131 124 119 122 123 114 105 102 98 93 92 92 90 88 85 83 81 79 79 81 83 87 91 94 95 97 99 98 95 93 92 91 89 88 88 88 88 87 86 84 81 78 77 77 77 76 74 72 69 65 62 59 54 49 43 38 35 32 28 24 19 17 16 15 12 11 10 9 9 10 10 8 6 5 3
162 162 160 159 160 158 153 145 139 133 129 124 119 119 114 105 100 97 95 93 92 90 88 86 82 77 76 74 74 75 81 88 93 97 100 100 99 97 93 90 90 91 89 88 89 88 86 85 85 83 81 80 80 80 79 77 75 73 70 67 62 57 51 44 38 34 31 27 24 22 18 16 15 14 12 11 10 10 10 10 9 7 6 5 2
165 163 160 159 158 156 152 145 138 132 126 120 115 111 106 103 101 99 97 93 89 86 82 79 77 75 75 75 75 76 82 89 94 99 102 101 99 98 96 93 90 89 87 87 88 86 85 84 83 82 81 82 82 80 79 78 77 74 70 64 57 50 44 38 34 30 27 24 22 20 18 16 14 13 13 12 11 11 10 10 9 7 6 5 4
165 163 161 161 160 158 156 150 142 134 126 119 112 108 105 103 101 98 95 91 87 84 82 80 79 80 82 80 78 79 82 88 94 99 101 100 99 97 97 97 93 89 87 85 85 85 84 83 82 81 82 82 82 82 81 80 77 72 66 59 51 46 40 35 32 27 25 23 21 19 18 16 14 13 13 13 12 12 11 10 9 8 7 6 6
165 163 163 164 164 162 162 159 151 141 130 123 114 107 103 101 99 96 93 90 88 87 86 87 88 89 89 87 85 83 83 85 89 96 100 101 100 98 97 96 94 92 90 88 85 84 83 82 82 82 82 84 85 85 83 80 75 70 63 56 49 43 37 33 29 25 23 21 19 18 17 16 14 13 13 13 13 12 11 10 10 9 8 6 6
167 167 167 168 169 170 170 173 168 158 146 131 120 112 104 99 98 97 94 93 93 93 93 95 96 97 96 94 92 89 87 85 84 88 96 99 99 100 98 94 92 92 92 92 90 88 86 85 85 86 88 90 90 89 85 80 74 68 61 54 48 41 36 30 25 23 22 20 18 17 15 15 13 12 12 12 12 11 10 10 9 8 7 6 5
170 171 171 173 176 177 177 188 197 195 187 157 132 119 109 101 100 100 99 98 96 94 95 97 99 100 99 98 97 95 92 88 84 84 89 95 99 99 97 95 93 93 93 94 92 90 89 89 91 94 96 95 92 88 83 77 69 60 53 48 41 33 30 27 23 22 22 20 18 16 15 15 13 11 11 11 11 10 9 8 8 7 6 5 4
175 176 177 179 184 187 188 197 209 212 210 196 161 134 120 110 106 106 105 102 99 96 95 97 100 102 102 101 102 102 100 96 91 88 88 92 99 101 99 97 95 94 96 97 95 93 93 94 100 103 102 98 92 87 81 72 63 56 50 45 36 26 24 24 22 22 21 19 16 14 15 15 14 12 11 10 9 9 8 7 6 5 4 4 3
183 184 187 189 192 196 199 204 212 216 211 199 183 157 138 129 121 117 115 112 108 105 103 101 102 103 104 105 107 107 106 105 101 97 94 94 98 104 106 104 101 99 100 100 99 98 98 102 109 112 110 105 97 88 78 66 59 55 48 41 35 27 24 24 23 21 20 17 14 14 15 15 14 12 10 9 8 8 7 6 5 4 3 2 1
191 195 199 202 204 205 206 206 210 212 207 195 181 162 147 138 133 128 124 122 119 116 112 108 104 104 105 107 109 110 111 113 113 112 108 103 103 109 115 115 112 109 107 105 102 101 104 113 120 122 119 112 100 85 72 61 53 48 42 35 32 29 26 23 20 19 16 13 13 14 15 14 12 11 9 8 7 7 6 5 3 2 1 360 360
200 205 210 213 215 214 210 206 204 200 194 183 169 157 149 144 140 137 133 129 126 123 119 115 110 106 106 108 110 114 118 122 127 130 128 125 120 119 127 132 129 123 118 113 109 108 115 125 132 133 125 110 96 79 63 53 47 44 41 37 31 25 20 17 17 17 15 11 10 11 12 11 10 9 8 7 6 6 5 3 1 360 359 358 358
209 212 218 221 222 222 216 207 199 187 178 172 164 157 153 150 146 141 137 133 131 130 127 125 120 115 112 113 116 122 129 136 146 151 153 154 149 144 146 152 152 144 134 128 123 121 130 140 145 142 128 112 95 71 57 50 49 49 47 40 31 22 14 11 14 17 15 11 7 7 8 8 7 7 5 5 4 4 2 1 359 357 357 357 357
219 221 225 227 227 227 221 212 199 182 173 169 166 163 159 155 151 145 140 137 135 135 135 135 134 133 131 130 133 140 150 160 168 173 175 176 174 170 167 168 172 169 159 151 145 142 148 154 157 152 139 127 99 68 63 63 60 56 42 29 21 16 10 9 13 15 13 9 5 4 6 6 5 4 3 2 2 1 360 358 357 356 355 356 357
228 230 233 234 233 231 226 218 207 191 180 175 174 172 168 163 158 152 148 143 140 141 144 146 148 148 149 154 161 167 175 184 193 194 192 192 190 186 183 184 185 185 183 180 173 165 165 168 170 167 161 148 109 72 75 79 54 32 19 14 11 8 7 10 12 10 7 6 3 1 3 3 1 1 1 0 360 359 358 357 355 354 355 356 356
233 236 239 241 240 237 233 226 218 206 196 189 185 181 178 173 168 163 160 157 152 151 158 169 177 177 172 175 183 190 194 200 209 212 208 204 201 198 195 193 193 195 197 199 197 187 180 182 184 182 183 180 150 91 83 47 26 12 1 1 5 7 8 10 8 3 360 1 359 357 359 359 358 358 359 358 358 357 356 355 354 354 355 356 356
232 236 240 244 245 242 238 233 226 220 213 206 198 191 187 185 180 176 173 176 176 175 186 207 227 233 224 213 209 210 212 212 216 221 221 216 210 207 204 200 199 202 206 210 211 206 199 196 196 194 196 199 204 224 237 273 339 344 348 355 5 9 7 4 359 354 354 355 354 354 356 355 355 356 357 356 357 357 356 354 354 355 356 356 355
228 231 235 240 243 241 238 235 231 228 223 219 212 203 196 196 197 194 187 189 199 212 228 240 249 254 249 242 237 230 225 223 223 224 227 227 221 215 210 207 205 205 210 216 219 219 216 212 208 208 207 209 217 230 243 268 308 330 342 350 359 2 357 352 347 344 349 352 349 349 352 352 352 355 356 356 356 356 355 353 354 355 356 355 353
224 227 229 233 237 238 236 235 234 233 229 225 222 215 206 203 209 216 217 212 217 230 245 252 255 256 254 252 251 246 237 231 229 227 229 231 230 224 217 212 210 209 212 219 224 226 227 224 220 219 219 219 225 234 247 270 297 316 331 339 344 343 339 338 337 336 342 347 345 345 349 350 350 353 354 355 355 354 354 353 354 355 354 352 351
224 226 227 229 232 234 235 235 235 235 234 230 227 224 219 214 215 224 231 235 238 244 255 261 259 257 254 253 253 253 248 239 233 231 231 233 234 232 224 218 215 213 214 220 226 230 233 232 228 227 227 229 235 242 250 264 278 289 307 323 324 320 321 325 327 330 337 343 342 343 346 348 348 351 352 353 354 354 354 354 354 354 353 351 349
226 228 228 228 230 233 235 236 236 237 238 237 232 228 226 225 225 227 233 239 245 249 257 263 263 259 254 252 251 253 253 247 240 236 235 235 236 236 232 225 220 218 217 221 227 232 236 239 237 236 234 235 241 247 254 262 270 281 298 311 309 306 312 318 320 326 334 340 341 341 343 345 346 348 350 351 352 353 354 355 354 353 351 348 346
228 228 229 230 231 232 235 236 237 238 239 240 237 231 228 229 231 230 233 241 249 253 255 260 263 262 256 252 250 251 253 252 246 242 240 239 238 238 236 231 226 223 221 223 228 232 237 241 241 242 241 241 244 249 255 263 270 280 293 302 304 305 310 316 318 322 329 337 340 338 339 343 343 345 348 349 350 352 353 354 353 350 347 344 344
229 228 229 231 233 234 236 237 236 237 238 239 239 236 231 230 231 232 233 241 252 256 256 256 260 262 259 256 253 252 253 253 249 245 243 243 242 240 238 235 231 228 225 227 230 233 238 242 243 244 245 245 248 252 260 269 275 280 285 293 301 306 310 314 315 318 323 332 337 335 335 340 341 341 344 347 348 350 351 351 349 346 344 343 343
231 229 228 231 233 235 236 238 237 235 236 237 237 237 234 231 231 232 233 239 249 255 256 255 256 259 261 260 258 255 254 254 251 247 244 243 245 245 242 238 235 233 231 231 233 235 239 244 245 246 246 248 252 258 264 271 276 278 281 287 295 302 308 310 310 312 317 326 333 332 332 337 339 339 342 343 344 346 348 348 347 345 344 343 343
232 231 229 229 233 235 236 238 238 235 234 235 235 235 235 232 229 229 231 237 247 254 256 256 254 255 256 259 259 257 256 255 253 250 246 244 246 249 248 243 238 236 235 236 237 238 241 246 248 249 249 250 255 261 265 269 273 276 279 284 289 297 304 306 306 309 314 321 328 329 329 333 336 337 338 339 340 344 346 346 345 344 343 343 343
231 231 230 229 232 236 237 237 237 236 235 235 234 233 234 232 229 227 227 233 244 253 256 254 252 251 250 253 256 257 257 257 256 254 249 245 246 250 252 249 243 240 239 239 240 241 243 247 251 252 252 252 255 260 265 268 271 274 279 283 286 292 297 301 304 308 312 317 323 326 327 330 333 334 334 336 339 342 343 343 343 343 342 342 343
228 231 230 229 230 234 237 237 237 237 237 236 235 234 233 232 230 227 225 228 238 250 256 253 250 248 247 248 251 255 256 257 258 256 251 246 246 250 253 252 250 246 243 242 242 243 245 248 251 253 254 254 255 259 263 266 270 274 278 282 285 289 292 296 301 306 310 315 320 323 324 326 329 331 332 335 338 340 340 340 341 341 341 342 344
225 228 229 228 228 230 235 238 237 238 238 238 238 236 234 233 230 227 224 225 232 245 253 254 250 247 247 248 249 251 253 254 256 256 252 248 247 249 252 254 255 252 247 245 245 246 247 249 251 253 254 255 257 259 262 266 269 273 277 281 285 287 289 294 301 305 308 312 316 319 321 323 328 332 333 335 337 338 338 339 340 340 341 343 344
223 227 229 229 228 228 232 236 238 238 239 240 240 239 237 235 232 227 225 225 229 240 249 253 251 250 250 249 249 250 250 251 253 255 254 251 250 249 250 253 257 257 252 249 249 249 249 251 251 253 255 256 258 260 264 267 270 273 277 281 284 286 288 294 299 302 304 308 312 316 319 322 328 334 335 334 334 335 336 337 338 340 341 343 343
222 225 228 229 228 228 229 232 236 238 239 240 241 241 240 239 235 230 226 225 228 237 246 251 251 251 251 251 250 251 251 251 252 254 256 255 253 252 251 253 256 258 256 254 253 252 252 253 253 254 257 258 260 262 264 267 270 273 276 279 281 284 288 292 296 299 301 305 310 314 317 321 327 332 335 333 331 331 334 336 338 340 341 341 341
221 223 227 228 228 228 228 230 232 235 238 239 241 242 243 242 240 234 229 227 228 236 245 250 251 251 251 252 252 252 253 252 252 255 256 256 255 254 252 253 256 257 257 258 258 257 256 255 255 256 259 261 263 264 266 268 270 272 275 277 278 281 286 290 293 296 298 302 307 310 314 319 324 329 332 332 331 330 332 335 338 339 340 339 339
221 223 226 228 229 229 229 231 232 233 236 239 241 243 245 245 244 240 234 230 229 235 243 248 251 252 252 253 253 253 253 253 253 253 254 256 256 255 254 255 256 255 256 259 261 260 258 258 257 258 261 263 266 268 269 270 270 271 274 275 276 280 284 287 290 293 295 299 304 307 310 317 322 325 328 330 331 330 331 334 338 339 338 338 338
Height
5944 5944 5944 5945 5945 5945 5945 5945 5944 5945 5945 5946 5946 5946 5946 5946 5947 5947 5947 5947 5947 5948 5948 5948 5948 5948 5948 5949 5949 5949 5950 5950 5950 5951 5951 5951 5952 5952 5952 5952 5952 5952 5952 5952 5952 5952 5952 5951 5951 5951 5951 5951 5950 5950 5950 5950 5949 5949 5949 5948 5948 5948 5947 5947 5946 5945 5944 5943 5942 5941 5941 5940 5939 5939 5938 5937 5937 5936 5935 5934 5933 5932 5931 5930 5929
5946 5946 5946 5947 5947 5947 5947 5947 5946 5947 5947 5948 5948 5948 5948 5948 5948 5948 5948 5949 5949 5949 5949 5949 5949 5949 5949 5950 5950 5950 5951 5951 5951 5952 5952 5952 5953 5953 5954 5954 5954 5954 5954 5954 5954 5954 5953 5953 5953 5952 5952 5952 5952 5952 5951 5951 5951 5951 5950 5950 5950 5949 5948 5947 5947 5946 5945 5944 5943 5942 5941 5941 5940 5939 5939 5938 5937 5936 5935 5935 5934 5933 5932 5930 5929
5947 5947 5948 5948 5948 5949 5949 5948 5948 5948 5949 5949 5949 5950 5950 5950 5950 5950 5950 5950 5950 5950 5951 5951 5951 5950 5951 5951 5952 5952 5952 5953 5953 5953 5954 5954 5954 5955 5955 5955 5956 5956 5956 5955 5955 5955 5955 5954 5954 5953 5953 5953 5953 5953 5953 5953 5952 5952 5952 5951 5951 5950 5949 5948 5947 5946 5945 5945 5944 5943 5942 5941 5941 5940 5939 5938 5938 5937 5936 5935 5934 5933 5932 5930 5929
5947 5948 5949 5949 5950 5950 5950 5950 5950 5950 5950 5950 5951 5952 5952 5952 5952 5951 5951 5952 5952 5952 5952 5953 5952 5952 5952 5953 5954 5954 5954 5955 5955 5955 5955 5956 5956 5956 5957 5957 5957 5957 5957 5956 5956 5956 5956 5955 5955 5955 5955 5955 5955 5955 5954 5954 5954 5953 5953 5952 5951 5951 5950 5949 5948 5947 5946 5945 5945 5944 5943 5942 5942 5941 5940 5939 5938 5937 5936 5935 5934 5933 5932 5931 5929
5948 5949 5950 5950 5950 5951 5951 5951 5952 5952 5952 5952 5953 5953 5953 5953 5953 5953 5953 5953 5954 5954 5954 5954 5954 5954 5954 5955 5955 5956 5956 5956 5957 5957 5957 5957 5957 5957 5958 5958 5958 5958 5957 5957 5957 5957 5957 5957 5957 5957 5956 5956 5956 5956 5956 5956 5955 5955 5954 5953 5952 5951 5950 5949 5949 5948 5947 5946 5946 5945 5944 5943 5942 5941 5941 5940 5939 5938 5937 5936 5934 5933 5932 5931 5930
5948 5948 5949 5950 5950 5951 5952 5952 5953 5952 5953 5953 5954 5954 5954 5954 5954 5954 5954 5954 5955 5955 5955 5955 5956 5956 5956 5956 5957 5957 5957 5958 5958 5958 5958 5958 5958 5958 5959 5958 5958 5959 5958 5958 5958 5958 5958 5958 5958 5958 5958 5958 5958 5958 5957 5957 5956 5956 5955 5954 5953 5952 5951 5951 5950 5949 5948 5948 5947 5946 5945 5944 5943 5942 5942 5941 5939 5938 5937 5936 5934 5933 5932 5931 5930
5949 5949 5949 5949 5950 5951 5952 5952 5952 5953 5954 5955 5955 5955 5955 5955 5955 5955 5955 5955 5955 5956 5956 5957 5957 5957 5957 5958 5958 5958 5959 5959 5959 5959 5959 5959 5959 5959 5959 5959 5960 5960 5960 5960 5960 5960 5960 5960 5960 5960 5959 5959 5959 5959 5959 5958 5958 5957 5956 5955 5954 5954 5953 5952 5951 5950 5950 5949 5948 5947 5946 5945 5944 5943 5942 5941 5940 5939 5937 5936 5935 5934 5933 5932 5930
5949 5950 5950 5951 5951 5952 5952 5953 5953 5954 5955 5955 5955 5955 5955 5955 5956 5956 5956 5956 5956 5957 5957 5957 5958 5958 5958 5959 5959 5959 5960 5960 5960 5960 5960 5960 5961 5960 5960 5961 5961 5961 5961 5961 5961 5961 5961 5961 5961 5961 5961 5961 5961 5960 5960 5959 5959 5958 5957 5956 5956 5955 5954 5954 5953 5952 5951 5950 5949 5948 5947 5946 5945 5944 5943 5942 5941 5939 5938 5937 5936 5935 5933 5932 5931
5950 5951 5951 5952 5953 5953 5954 5954 5955 5955 5955 5955 5956 5955 5955 5955 5956 5956 5957 5957 5957 5957 5958 5958 5958 5959 5959 5960 5960 5960 5961 5961 5961 5962 5962 5962 5962 5962 5962 5962 5962 5962 5962 5962 5962 5962 5962 5962 5962 5962 5962 5962 5962 5961 5961 5961 5960 5959 5959 5958 5957 5957 5956 5955 5954 5953 5952 5951 5950 5949 5948 5947 5946 5945 5944 5943 5942 5940 5939 5938 5937 5936 5934 5933 5932
5950 5951 5952 5953 5954 5954 5955 5955 5955 5955 5955 5956 5956 5956 5956 5956 5956 5956 5957 5958 5958 5958 5959 5959 5959 5960 5960 5961 5961 5961 5962 5962 5962 5963 5963 5963 5963 5963 5963 5963 5963 5964 5964 5964 5964 5963 5964 5964 5964 5964 5963 5963 5963 5963 5962 5962 5961 5961 5960 5959 5959 5958 5957 5957 5956 5955 5954 5953 5952 5951 5950 5949 5947 5946 5945 5944 5943 5942 5940 5939 5938 5936 5935 5934 5932
5951 5952 5953 5953 5954 5955 5955 5955 5955 5955 5956 5956 5956 5957 5956 5956 5957 5957 5958 5958 5959 5959 5960 5960 5960 5961 5961 5962 5962 5962 5963 5963 5963 5964 5964 5964 5964 5964 5964 5964 5964 5965 5965 5965 5965 5965 5965 5965 5965 5965 5964 5964 5964 5964 5964 5963 5963 5962 5961 5961 5960 5960 5959 5958 5957 5957 5956 5954 5953 5952 5951 5950 5949 5947 5946 5945 5944 5943 5941 5940 5939 5937 5936 5934 5932
5952 5953 5954 5954 5955 5955 5956 5956 5956 5956 5957 5957 5957 5957 5957 5957 5958 5958 5958 5959 5959 5960 5961 5961 5961 5961 5962 5962 5962 5963 5963 5964 5964 5965 5965 5965 5965 5965 5965 5965 5965 5966 5966 5966 5966 5966 5966 5966 5966 5965 5965 5965 5965 5965 5965 5964 5964 5963 5963 5962 5962 5961 5960 5960 5959 5958 5957 5956 5955 5954 5952 5951 5950 5948 5947 5946 5945 5943 5942 5941 5939 5938 5936 5934 5932
5953 5954 5954 5955 5955 5956 5956 5957 5957 5957 5958 5958 5958 5958 5958 5958 5959 5959 5959 5960 5960 5961 5961 5962 5962 5962 5963 5963 5963 5963 5964 5964 5965 5965 5966 5966 5966 5967 5966 5966 5966 5967 5967 5967 5967 5967 5967 5966 5966 5966 5966 5966 5966 5966 5965 5965 5964 5964 5964 5963 5963 5962 5962 5961 5960 5959 5958 5957 5956 5955 5953 5952 5951 5949 5948 5947 5946 5944 5943 5941 5940 5938 5936 5935 5933
5953 5954 5955 5956 5956 5957 5957 5958 5958 5958 5959 5959 5959 5959 5959 5959 5960 5960 5960 5961 5961 5962 5962 5962 5963 5963 5964 5964 5964 5964 5964 5965 5965 5966 5966 5967 5967 5967 5967 5967 5967 5967 5967 5968 5968 5968 5968 5967 5967 5967 5967 5966 5967 5966 5966 5966 5965 5965 5965 5965 5964 5963 5963 5962 5961 5960 5959 5958 5956 5955 5954 5953 5952 5950 5949 5948 5947 5945 5944 5942 5940 5939 5937 5935 5933
5954 5954 5955 5956 5957 5957 5958 5958 5959 5959 5960 5960 5960 5961 5961 5960 5961 5961 5962 5962 5962 5963 5963 5963 5964 5964 5965 5965 5965 5965 5965 5966 5966 5966 5967 5967 5968 5968 5968 5968 5968 5968 5968 5969 5969 5969 5969 5968 5968 5968 5967 5968 5968 5967 5967 5967 5967 5966 5966 5966 5965 5964 5964 5963 5962 5961 5960 5958 5957 5956 5955 5954 5952 5951 5950 5949 5948 5946 5944 5943 5941 5939 5937 5935 5933
5955 5955 5956 5957 5958 5958 5959 5959 5960 5960 5961 5961 5961 5962 5962 5962 5962 5963 5963 5963 5964 5964 5964 5965 5965 5965 5966 5966 5966 5966 5966 5967 5967 5967 5968 5968 5968 5968 5969 5969 5969 5969 5970 5970 5970 5969 5969 5969 5969 5969 5969 5969 5969 5968 5968 5968 5968 5967 5967 5967 5966 5965 5965 5964 5963 5962 5961 5959 5958 5957 5956 5955 5953 5952 5951 5950 5948 5947 5945 5943 5941 5939 5937 5935 5933
5956 5956 5957 5958 5958 5959 5959 5960 5961 5961 5962 5962 5962 5963 5963 5963 5963 5964 5965 5965 5965 5965 5966 5966 5966 5966 5967 5966 5967 5967 5967 5968 5968 5968 5969 5969 5969 5969 5970 5970 5970 5970 5971 5971 5970 5970 5971 5970 5970 5970 5970 5970 5969 5969 5969 5969 5969 5969 5968 5968 5967 5966 5966 5965 5964 5963 5961 5960 5959 5958 5957 5956 5955 5953 5952 5950 5949 5947 5945 5943 5941 5939 5937 5935 5933
5957 5957 5958 5959 5959 5959 5960 5961 5961 5962 5962 5963 5963 5964 5964 5964 5965 5966 5966 5966 5966 5967 5967 5967 5967 5967 5968 5967 5967 5968 5968 5969 5969 5969 5969 5970 5970 5970 5971 5971 5971 5971 5972 5972 5971 5971 5972 5971 5971 5971 5971 5970 5970 5970 5970 5970 5970 5970 5969 5969 5968 5967 5967 5966 5965 5964 5963 5961 5960 5959 5958 5957 5956 5954 5953 5951 5949 5947 5945 5943 5941 5939 5937 5935 5933
5957 5958 5959 5960 5960 5961 5961 5961 5962 5963 5963 5964 5964 5965 5965 5966 5966 5967 5967 5967 5968 5968 5968 5968 5968 5968 5968 5968 5968 5969 5969 5970 5970 5970 5970 5970 5971 5971 5972 5972 5972 5972 5973 5973 5972 5972 5972 5972 5972 5972 5972 5971 5971 5971 5971 5971 5971 5971 5970 5970 5969 5968 5968 5967 5966 5965 5964 5963 5962 5960 5959 5958 5956 5955 5953 5951 5949 5947 5945 5943 5941 5939 5937 5935 5933
5959 5960 5960 5961 5962 5962 5962 5963 5963 5964 5964 5965 5965 5966 5966 5967 5967 5968 5968 5968 5968 5968 5968 5969 5969 5969 5969 5969 5969 5970 5970 5970 5971 5971 5971 5971 5972 5972 5973 5973 5973 5973 5974 5973 5973 5973 5973 5973 5973 5973 5973 5972 5972 5972 5972 5972 5972 5971 5971 5971 5970 5969 5969 5968 5967 5966 5965 5964 5963 5961 5960 5959 5957 5955 5953 5951 5949 5947 5945 5943 5941 5939 5937 5935 5933
5960 5961 5961 5962 5963 5963 5963 5964 5964 5965 5965 5966 5966 5967 5968 5968 5968 5969 5969 5969 5969 5969 5969 5970 5970 5970 5970 5970 5970 5971 5971 5971 5971 5972 5972 5973 5973 5973 5974 5974 5974 5974 5974 5974 5974 5974 5974 5974 5974 5974 5974 5973 5973 5973 5974 5973 5973 5972 5972 5972 5971 5970 5970 5969 5968 5967 5966 5965 5963 5962 5961 5959 5957 5955 5954 5952 5949 5947 5945 5943 5941 5939 5937 5935 5932
5960 5961 5962 5962 5963 5963 5964 5964 5965 5965 5966 5966 5967 5968 5968 5968 5969 5969 5970 5970 5970 5970 5970 5971 5971 5971 5971 5971 5971 5972 5972 5972 5972 5973 5973 5974 5974 5974 5974 5975 5975 5975 5975 5975 5975 5975 5975 5975 5975 5975 5975 5974 5975 5975 5975 5974 5974 5973 5973 5973 5972 5971 5970 5969 5968 5968 5967 5966 5964 5963 5962 5960 5958 5956 5954 5952 5950 5947 5945 5943 5941 5939 5936 5934 5932
5960 5961 5962 5963 5963 5964 5964 5965 5965 5966 5966 5967 5967 5968 5969 5969 5970 5970 5970 5970 5970 5971 5971 5971 5971 5971 5971 5972 5972 5973 5973 5973 5973 5974 5974 5975 5975 5975 5975 5976 5976 5976 5976 5976 5976 5976 5976 5976 5976 5976 5976 5976 5976 5976 5975 5975 5975 5975 5974 5973 5973 5972 5971 5970 5969 5968 5967 5966 5965 5964 5962 5960 5958 5956 5954 5952 5950 5948 5945 5943 5941 5938 5936 5934 5932
5961 5961 5962 5963 5964 5964 5965 5965 5966 5966 5967 5967 5968 5968 5969 5970 5970 5971 5971 5971 5971 5971 5972 5972 5972 5972 5972 5972 5973 5973 5974 5974 5975 5975 5975 5975 5976 5976 5976 5976 5977 5977 5977 5977 5977 5977 5977 5977 5977 5977 5977 5977 5977 5977 5976 5976 5976 5976 5975 5974 5973 5972 5972 5971 5970 5969 5968 5967 5965 5964 5963 5961 5958 5956 5954 5952 5950 5948 5946 5943 5941 5939 5936 5934 5932
5961 5962 5963 5963 5964 5965 5965 5966 5966 5966 5967 5967 5968 5969 5969 5970 5971 5971 5971 5972 5972 5972 5972 5972 5972 5972 5973 5973 5973 5974 5974 5975 5976 5976 5976 5976 5976 5977 5977 5977 5977 5978 5978 5978 5978 5978 5978 5978 5978 5978 5978 5978 5978 5978 5978 5977 5977 5976 5976 5975 5974 5973 5972 5971 5971 5969 5968 5967 5965 5964 5962 5961 5958 5956 5954 5952 5950 5948 5945 5943 5941 5938 5936 5933 5931
5961 5962 5963 5963 5964 5965 5965 5966 5966 5967 5967 5968 5968 5969 5970 5970 5971 5971 5972 5972 5972 5973 5973 5973 5973 5973 5973 5974 5974 5975 5975 5976 5976 5976 5977 5977 5977 5978 5978 5978 5978 5979 5978 5979 5979 5979 5979 5979 5980 5980 5980 5980 5979 5979 5979 5978 5978 5977 5976 5976 5975 5974 5973 5972 5971 5970 5969 5967 5965 5964 5962 5961 5959 5956 5954 5952 5950 5947 5945 5943 5940 5938 5935 5933 5930
5961 5962 5963 5964 5964 5965 5966 5966 5967 5967 5968 5968 5969 5969 5970 5971 5971 5972 5972 5973 5973 5973 5973 5974 5974 5974 5974 5974 5975 5975 5976 5976 5977 5977 5977 5978 5978 5979 5979 5979 5979 5979 5979 5979 5980 5980 5980 5980 5981 5981 5981 5981 5980 5980 5980 5979 5978 5977 5977 5976 5975 5974 5973 5972 5971 5970 5969 5967 5966 5964 5963 5961 5959 5957 5954 5952 5950 5947 5945 5942 5940 5938 5935 5933 5930
5961 5962 5963 5964 5964 5965 5966 5966 5967 5967 5968 5968 5969 5970 5971 5971 5972 5972 5972 5973 5973 5973 5974 5974 5975 5975 5975 5975 5975 5976 5976 5977 5977 5977 5978 5978 5979 5979 5980 5980 5980 5980 5980 5980 5980 5981 5981 5981 5981 5982 5982 5981 5981 5980 5980 5979 5979 5978 5977 5976 5975 5974 5973 5972 5971 5970 5969 5967 5966 5965 5963 5962 5960 5957 5955 5952 5950 5947 5945 5942 5940 5937 5935 5932 5930
5961 5962 5963 5964 5964 5965 5966 5967 5967 5968 5968 5969 5970 5970 5971 5971 5972 5973 5973 5973 5974 5974 5974 5975 5975 5975 5976 5976 5976 5976 5977 5977 5977 5978 5978 5979 5979 5980 5980 5980 5981 5981 5981 5981 5981 5981 5982 5982 5982 5982 5982 5982 5981 5981 5980 5980 5979 5978 5977 5977 5976 5975 5974 5973 5972 5971 5970 5968 5967 5965 5963 5962 5960 5958 5955 5952 5950 5947 5944 5942 5939 5937 5934 5932 5929
5961 5962 5963 5963 5964 5965 5966 5967 5967 5968 5968 5969 5970 5971 5971 5972 5972 5973 5973 5974 5974 5974 5975 5975 5976 5976 5976 5976 5976 5977 5977 5977 5977 5978 5978 5979 5979 5980 5980 5981 5981 5981 5981 5981 5982 5982 5982 5982 5982 5982 5982 5982 5982 5981 5980 5980 5979 5978 5977 5977 5976 5976 5975 5974 5973 5972 5970 5969 5967 5965 5963 5961 5959 5957 5955 5952 5949 5946 5943 5941 5938 5936 5933 5930 5928
5961 5962 5962 5963 5964 5965 5966 5966 5967 5968 5968 5969 5970 5971 5972 5972 5973 5973 5974 5974 5974 5975 5975 5975 5976 5976 5976 5976 5977 5977 5977 5977 5977 5977 5978 5978 5979 5980 5980 5981 5981 5981 5981 5982 5982 5982 5982 5982 5982 5982 5982 5982 5982 5981 5981 5980 5979 5979 5979 5978 5978 5977 5976 5975 5974 5972 5970 5968 5966 5964 5962 5960 5958 5956 5953 5951 5948 5945 5942 5940 5937 5935 5932 5930 5927
5960 5961 5962 5963 5964 5964 5965 5966 5966 5967 5968 5969 5970 5971 5972 5973 5973 5974 5974 5974 5975 5975 5975 5975 5976 5976 5976 5976 5977 5977 5977 5977 5977 5977 5978 5978 5979 5979 5980 5980 5981 5981 5981 5981 5982 5982 5982 5983 5983 5983 5982 5982 5982 5981 5981 5980 5980 5980 5980 5980 5979 5978 5977 5975 5974 5972 5970 5968 5965 5963 5961 5959 5957 5954 5952 5950 5947 5945 5942 5940 5937 5935 5932 5930 5927
5960 5961 5962 5963 5964 5964 5965 5965 5966 5967 5968 5969 5970 5971 5972 5973 5974 5974 5975 5975 5975 5975 5975 5976 5976 5976 5976 5976 5976 5976 5976 5976 5977 5977 5977 5977 5978 5979 5979 5980 5980 5981 5981 5981 5982 5982 5982 5982 5983 5982 5982 5982 5982 5981 5981 5981 5981 5981 5980 5980 5979 5978 5977 5975 5973 5971 5969 5968 5965 5963 5961 5959 5957 5955 5953 5951 5948 5946 5943 5941 5938 5935 5932 5930 5927
5959 5960 5961 5962 5963 5964 5965 5965 5966 5966 5967 5968 5970 5971 5972 5973 5974 5974 5975 5975 5975 5976 5976 5976 5976 5976 5976 5976 5976 5976 5976 5976 5976 5976 5976 5977 5977 5978 5978 5979 5980 5980 5981 5981 5981 5982 5982 5982 5982 5982 5982 5982 5982 5981 5981 5981 5981 5981 5980 5980 5979 5978 5976 5974 5973 5971 5969 5968 5966 5964 5962 5960 5958 5956 5954 5952 5949 5947 5944 5941 5938 5936 5933 5930 5927
5958 5960 5961 5962 5963 5964 5965 5965 5966 5966 5967 5968 5969 5970 5971 5972 5973 5974 5975 5975 5975 5976 5976 5976 5976 5976 5976 5976 5976 5975 5975 5975 5975 5975 5976 5976 5976 5977 5978 5978 5979 5979 5980 5980 5981 5981 5982 5982 5982 5982 5982 5982 5981 5981 5981 5981 5981 5980 5980 5979 5978 5977 5975 5974 5973 5971 5970 5968 5966 5964 5962 5960 5958 5956 5954 5952 5949 5947 5944 5941 5938 5935 5932 5929 5926
5957 5958 5959 5961 5962 5964 5964 5965 5965 5966 5966 5967 5968 5969 5970 5971 5972 5973 5974 5975 5975 5975 5976 5976 5976 5976 5975 5975 5975 5975 5975 5975 5975 5975 5975 5975 5975 5976 5977 5977 5978 5978 5979 5980 5980 5981 5981 5981 5981 5981 5981 5981 5981 5981 5981 5981 5980 5980 5979 5978 5977 5976 5975 5974 5973 5972 5970 5968 5966 5964 5962 5960 5958 5956 5954 5951 5949 5946 5943 5940 5938 5935 5931 5928 5926
5954 5956 5958 5959 5961 5962 5963 5964 5964 5965 5966 5966 5967 5968 5969 5970 5971 5972 5973 5974 5975 5975 5975 5975 5975 5975 5975 5975 5975 5975 5974 5974 5974 5974 5974 5974 5974 5975 5975 5976 5977 5977 5978 5978 5979 5980 5980 5980 5980 5981 5981 5981 5981 5981 5981 5980 5980 5979 5978 5977 5977 5976 5975 5974 5973 5971 5969 5968 5965 5963 5962 5959 5957 5955 5953 5951 5948 5945 5942 5939 5936 5934 5931 5928 5925
5952 5954 5956 5957 5959 5960 5961 5962 5963 5964 5964 5965 5966 5967 5968 5969 5970 5971 5972 5973 5974 5974 5974 5974 5974 5974 5974 5974 5974 5974 5974 5974 5973 5973 5973 5973 5973 5974 5974 5975 5975 5976 5977 5977 5978 5979 5979 5979 5980 5980 5980 5980 5980 5980 5980 5979 5979 5979 5978 5977 5976 5976 5975 5974 5972 5970 5969 5967 5965 5963 5961 5959 5956 5954 5952 5950 5948 5945 5942 5938 5935 5932 5930 5927 5924
5950 5952 5954 5955 5957 5958 5959 5961 5962 5962 5963 5964 5965 5966 5967 5968 5969 5970 5971 5972 5973 5973 5973 5974 5973 5973 5973 5973 5973 5973 5973 5973 5973 5973 5972 5972 5972 5972 5973 5973 5974 5975 5975 5976 5977 5977 5978 5978 5978 5979 5979 5979 5979 5979 5979 5978 5978 5978 5978 5977 5976 5975 5974 5973 5971 5969 5968 5966 5964 5961 5959 5957 5955 5953 5951 5949 5947 5944 5941 5937 5934 5931 5929 5926 5923
5948 5950 5951 5953 5954 5956 5957 5959 5960 5961 5962 5963 5964 5965 5966 5967 5968 5969 5970 5971 5971 5972 5972 5972 5972 5972 5972 5972 5972 5972 5972 5971 5972 5972 5971 5971 5971 5971 5972 5972 5973 5973 5974 5975 5975 5976 5976 5977 5977 5977 5977 5978 5978 5978 5977 5977 5977 5977 5976 5976 5975 5974 5973 5971 5969 5968 5967 5965 5963 5960 5959 5956 5954 5952 5950 5947 5945 5942 5939 5936 5933 5931 5929 5926 5923
5946 5948 5949 5950 5952 5953 5955 5956 5958 5959 5960 5961 5962 5964 5964 5965 5966 5967 5968 5969 5970 5970 5971 5971 5971 5971 5971 5971 5971 5971 5970 5970 5970 5970 5970 5970 5970 5970 5971 5971 5971 5972 5973 5973 5973 5974 5974 5975 5975 5975 5976 5976 5976 5976 5976 5976 5975 5975 5975 5974 5974 5972 5971 5970 5967 5966 5965 5964 5962 5959 5958 5956 5953 5951 5949 5946 5944 5941 5938 5936 5933 5931 5929 5926 5924
5943 5945 5946 5948 5949 5951 5952 5954 5955 5957 5958 5959 5960 5961 5962 5963 5964 5965 5966 5967 5968 5969 5969 5969 5970 5969 5969 5969 5969 5969 5969 5969 5969 5969 5969 5969 5969 5969 5970 5970 5970 5971 5971 5971 5972 5972 5973 5973 5973 5974 5974 5974 5974 5974 5974 5973 5973 5973 5973 5973 5972 5971 5970 5968 5966 5964 5963 5963 5961 5958 5956 5955 5953 5950 5948 5945 5943 5941 5938 5936 5933 5930 5928 5925 5922
5940 5942 5944 5945 5947 5948 5950 5951 5953 5954 5955 5956 5957 5958 5959 5961 5962 5963 5964 5965 5966 5967 5967 5967 5968 5968 5968 5968 5968 5968 5968 5967 5967 5967 5968 5968 5968 5968 5968 5968 5969 5969 5969 5969 5970 5970 5971 5971 5971 5972 5972 5972 5972 5972 5971 5971 5971 5971 5971 5971 5970 5969 5968 5966 5965 5963 5961 5961 5960 5957 5955 5954 5951 5948 5946 5944 5942 5940 5938 5935 5933 5929 5926 5923 5920
5936 5939 5941 5943 5944 5945 5947 5949 5950 5952 5953 5953 5954 5955 5956 5958 5960 5961 5962 5963 5964 5964 5965 5965 5966 5966 5966 5966 5966 5966 5966 5966 5966 5966 5966 5966 5966 5966 5967 5967 5967 5967 5967 5968 5968 5968 5969 5969 5969 5969 5970 5970 5969 5969 5969 5969 5969 5969 5969 5969 5968 5967 5966 5965 5963 5962 5960 5959 5958 5956 5954 5952 5950 5947 5945 5943 5941 5938 5936 5934 5931 5928 5925 5921 5918
5933 5935 5938 5940 5941 5942 5944 5946 5947 5948 5950 5950 5951 5952 5953 5955 5956 5958 5960 5961 5961 5962 5963 5963 5964 5964 5964 5964 5964 5964 5964 5964 5964 5964 5964 5965 5965 5965 5965 5965 5965 5965 5965 5966 5966 5966 5967 5967 5967 5967 5967 5967 5967 5967 5967 5967 5967 5967 5967 5966 5966 5965 5964 5963 5961 5960 5959 5957 5957 5955 5952 5951 5949 5947 5944 5941 5939 5937 5934 5932 5929 5927 5923 5920 5916
5929 5932 5934 5937 5938 5939 5941 5943 5944 5945 5946 5947 5948 5949 5950 5952 5953 5955 5957 5958 5959 5960 5960 5961 5961 5961 5962 5962 5962 5962 5962 5962 5962 5962 5962 5962 5963 5963 5963 5963 5963 5963 5963 5963 5964 5964 5965 5965 5965 5965 5965 5965 5965 5965 5964 5964 5964 5964 5964 5964 5963 5963 5962 5961 5960 5958 5957 5956 5955 5953 5951 5949 5948 5945 5942 5940 5937 5935 5933 5930 5927 5924 5921 5917 5914
5926 5928 5930 5933 5935 5937 5938 5939 5941 5942 5943 5944 5945 5946 5947 5948 5950 5952 5954 5956 5956 5957 5957 5958 5958 5959 5959 5960 5960 5960 5960 5960 5960 5960 5960 5960 5961 5961 5961 5961 5961 5961 5961 5961 5961 5962 5962 5962 5962 5963 5962 5962 5962 5962 5962 5961 5961 5961 5961 5961 5961 5960 5959 5959 5957 5956 5954 5953 5952 5951 5950 5948 5946 5943 5940 5937 5935 5933 5930 5927 5925 5922 5919 5915 5912
5922 5924 5926 5928 5931 5933 5935 5936 5938 5939 5940 5941 5942 5943 5944 5945 5947 5949 5951 5952 5954 5954 5954 5955 5955 5956 5956 5957 5957 5957 5957 5957 5957 5957 5958 5958 5958 5959 5959 5959 5959 5959 5959 5959 5959 5959 5959 5959 5960 5960 5960 5960 5960 5960 5959 5959 5958 5958 5958 5958 5958 5957 5956 5956 5955 5953 5951 5951 5949 5948 5947 5946 5944 5942 5938 5934 5932 5930 5928 5925 5923 5920 5917 5914 5910
5919 5920 5922 5924 5926 5929 5931 5933 5934 5936 5937 5938 5939 5940 5941 5942 5944 5946 5948 5949 5950 5951 5951 5952 5953 5953 5953 5954 5954 5954 5955 5955 5955 5955 5955 5956 5956 5956 5956 5957 5956 5956 5956 5956 5956 5956 5956 5957 5957 5957 5957 5957 5957 5957 5956 5956 5955 5955 5956 5955 5954 5953 5953 5952 5952 5950 5949 5948 5947 5946 5944 5943 5942 5940 5938 5934 5930 5928 5926 5924 5921 5918 5915 5912 5909
5915 5917 5918 5919 5922 5924 5927 5929 5930 5932 5933 5934 5936 5937 5938 5939 5941 5943 5944 5946 5947 5948 5948 5949 5949 5950 5950 5951 5951 5952 5952 5952 5952 5952 5953 5953 5953 5954 5954 5954 5954 5954 5954 5954 5954 5954 5954 5954 5954 5954 5954 5954 5954 5954 5954 5953 5952 5952 5953 5952 5951 5950 5950 5949 5948 5947 5946 5945 5944 5943 5941 5940 5938 5937 5936 5934 5930 5925 5923 5921 5919 5916 5913 5910 5907
5911 5913 5914 5916 5918 5920 5923 5925 5926 5928 5929 5931 5932 5933 5934 5935 5937 5939 5941 5942 5944 5944 5945 5945 5946 5947 5947 5948 5948 5949 5949 5949 5949 5950 5950 5950 5951 5951 5951 5951 5952 5952 5951 5951 5951 5951 5951 5951 5951 5951 5951 5951 5951 5951 5950 5949 5949 5949 5949 5948 5947 5947 5947 5946 5945 5944 5943 5942 5941 5940 5938 5937 5935 5934 5933 5932 5929 5925 5921 5918 5915 5912 5910 5907 5905